星链-1480 (STARLINK-1480 )

导读

STARLINK-1480是美国SpaceX星链互联网卫星星座中的一员,于2020年6月13日发射入轨。星链项目旨在为全球提供高速低延迟互联网覆盖,该卫星加入星座后,进一步拓展了星链低轨卫星网络的服务规模,助力天基互联网全球覆盖能力的搭建,推动全球互联网络架构升级。

Basic Information
目录编号:
45741
目录名称:
STARLINK-1480
国际标识:
2020-038M
轨道中心:
EARTH
卫星名称:
星链-1480
卫星全名:
星链-1480 (STARLINK-1480 )
卫星状态:
在轨 (已飞行2191 天)
发射日期:
2020-06-13 UTC
国别 :
美国 (US)
星等 :
--
Orbit Information
数据来源 国际轨道数据 AOE轨道数据
星历时间 2026-06-12T10:56:04+0800
23小时前
查看轨道信息
2026-06-08T17:00:00+0800
4天前
查看轨道信息
半长轴 6749.218km 6750.257km
偏心率 0.0006394 0.000665
轨道倾角 53.047° 53.045°
近地点辐角 47.760° 34.719°
升交点赤经 118.261° 136.673°
平近点角 312.396° 73.362°
近地点 366.765km 367.631km
远地点 375.397km 376.609km
周期 91.969分钟 91.990分钟
每日圈数 15.657508 15.653892
Detailed Information
固有亮度:
5
最大亮度:
2.5
卫星平台:
Starlink V1.0
覆盖范围:
全球
运营商:
太空探索技术公司
运营商所在国:
美国
制造商(研发单位):
太空探索技术公司
制造商所在国:
美国
使用方式:
暂无
Satellite Introduction
星链(Starlink)计划是由太空探索技术公司(SpaceX)提出的一个巨型低轨卫星互联网星座项目,计划在2019年至2024年间在太空搭建由约1.2万颗卫星组成的“星链”网络,其中1584颗将部署在地球上空550千米处的近地轨道,并从2020年开始工作。该卫星仍在工作。
2D Orbit Map
3D Orbit Map
Orbit Altitude Analysis Chart
Orbit Inclination Analysis Chart
Orbit Comprehensive Analysis Chart
View Comprehensive Chart